FW6610 Weather Reports


Display with metric or nautical units.
time (UTC)temp
F
wind
direction
speed
MPH
gust
MPH
rain 1hr
in
rain 24hr
in
rain mn
in
humidity
%
barometer
mb
20200407231619 60 342 0.0 1.0 0.00 0.00 0.00 34 1006.8
20200407231027 60 0 0.0 3.0 0.00 0.00 0.00 36 1006.8
20200407230536 61 297 1.0 3.0 0.00 0.00 0.00 33 1006.7
20200407230119 61 301 0.0 3.0 0.00 0.00 0.00 32 1006.9
20200407225528 61 328 1.0 4.0 0.00 0.00 0.00 31 1006.9
20200407225030 62 4 2.0 4.0 0.00 0.00 0.00 30 1006.8
20200407224540 62 320 0.0 3.0 0.00 0.00 0.00 32 1006.8
20200407224028 62 330 1.0 3.0 0.00 0.00 0.00 31 1006.8
20200407223532 62 216 0.0 5.0 0.00 0.00 0.00 31 1006.8
20200407223107 62 235 2.0 5.0 0.00 0.00 0.00 32 1006.9
20200407222534 62 304 1.0 4.0 0.00 0.00 0.00 29 1006.8
20200407222042 62 325 1.0 6.0 0.00 0.00 0.00 29 1006.8
20200407221548 63 279 2.0 7.0 0.00 0.00 0.00 28 1006.8
20200407221035 63 294 4.0 7.0 0.00 0.00 0.00 28 1006.8
20200407220527 64 301 2.0 7.0 0.00 0.00 0.00 27 1006.7
20200407220102 65 181 2.0 5.0 0.00 0.00 0.00 27 1006.7
20200407215530 66 265 1.0 4.0 0.00 0.00 0.00 26 1006.7
20200407215028 65 238 1.0 9.0 0.00 0.00 0.00 27 1006.7
20200407214650 65 330 2.0 11.0 0.00 0.00 0.00 25 1006.7
20200407214031 65 207 3.0 12.0 0.00 0.00 0.00 26 1006.8
20200407213530 65 333 5.0 12.0 0.00 0.00 0.00 26 1006.9
20200407213118 66 241 2.0 10.0 0.00 0.00 0.00 26 1006.9
20200407212528 65 311 5.0 9.0 0.00 0.00 0.00 27 1006.9
20200407212027 65 232 4.0 11.0 0.00 0.00 0.00 26 1007.1
20200407211606 65 297 6.0 14.0 0.00 0.00 0.00 25 1007.0
20200407211031 65 315 4.0 14.0 0.00 0.00 0.00 25 1007.2
20200407210528 65 36 3.0 11.0 0.00 0.00 0.00 26 1007.2
20200407210213 65 307 3.0 13.0 0.00 0.00 0.00 28 1007.3
20200407205539 65 310 4.0 13.0 0.00 0.00 0.00 25 1007.3
20200407205029 66 25 4.0 9.0 0.00 0.00 0.00 24 1007.2
20200407204620 66 302 2.0 6.0 0.00 0.00 0.00 26 1007.3
20200407204026 66 295 3.0 8.0 0.00 0.00 0.00 24 1007.4
20200407203528 65 252 3.0 12.0 0.00 0.00 0.00 25 1007.3
20200407203035 64 297 5.0 15.0 0.00 0.00 0.00 26 1007.5
20200407202533 65 322 5.0 15.0 0.00 0.00 0.00 25 1007.6
20200407202031 64 295 4.0 9.0 0.00 0.00 0.00 26 1007.6
20200407201614 64 205 4.0 11.0 0.00 0.00 0.00 27 1007.6
20200407201035 64 154 4.0 11.0 0.00 0.00 0.00 25 1007.7
20200407200528 64 276 4.0 12.0 0.00 0.00 0.00 28 1007.8
20200407200113 64 318 4.0 12.0 0.00 0.00 0.00 24 1007.9
20200407195528 64 324 5.0 14.0 0.00 0.00 0.00 25 1007.9
20200407195030 63 336 5.0 14.0 0.00 0.00 0.00 26 1008.0
20200407194623 63 271 7.0 13.0 0.00 0.00 0.00 24 1007.9
20200407194029 63 347 5.0 11.0 0.00 0.00 0.00 25 1008.0
20200407193534 63 231 4.0 13.0 0.00 0.00 0.00 27 1008.2
20200407193050 62 1 7.0 13.0 0.00 0.00 0.00 26 1008.2
20200407192529 63 6 7.0 13.0 0.00 0.00 0.00 25 1008.6
20200407192039 63 325 3.0 6.0 0.00 0.00 0.00 24 1008.6
20200407191557 63 180 3.0 11.0 0.00 0.00 0.00 23 1008.5
20200407191028 62 295 5.0 11.0 0.00 0.00 0.00 23 1008.7
20200407190529 62 293 4.0 15.0 0.00 0.00 0.00 25 1008.9
20200407190115 62 289 6.0 15.0 0.00 0.00 0.00 25 1009.0
20200407185532 63 313 5.0 12.0 0.00 0.00 0.00 23 1009.0
20200407185029 63 245 2.0 13.0 0.00 0.00 0.00 26 1009.1
20200407184608 62 285 3.0 21.0 0.00 0.00 0.00 25 1009.3
20200407184034 62 25 7.0 21.0 0.00 0.00 0.00 26 1009.4
20200407183530 62 330 2.0 12.0 0.00 0.00 0.00 28 1009.4
20200407183113 62 37 5.0 11.0 0.00 0.00 0.00 27 1009.6
20200407182527 62 342 6.0 12.0 0.00 0.00 0.00 23 1009.8
20200407182035 62 358 2.0 12.0 0.00 0.00 0.00 24 1009.8
20200407181541 62 4 3.0 12.0 0.00 0.00 0.00 24 1009.9
20200407181027 62 176 5.0 12.0 0.00 0.00 0.00 25 1009.8
20200407180528 61 308 3.0 12.0 0.00 0.00 0.00 25 1010.1
20200407180056 61 293 6.0 11.0 0.00 0.00 0.00 24 1010.1
20200407175535 62 18 4.0 11.0 0.00 0.00 0.00 26 1010.2
20200407175028 62 357 3.0 13.0 0.00 0.00 0.00 27 1010.3
20200407174634 62 268 7.0 13.0 0.00 0.00 0.00 23 1010.4
20200407174032 62 344 3.0 11.0 0.00 0.00 0.00 26 1010.5
20200407173529 61 349 4.0 10.0 0.00 0.00 0.00 30 1010.6
20200407173040 61 238 5.0 16.0 0.00 0.00 0.00 25 1010.7
20200407172529 61 280 5.0 16.0 0.00 0.00 0.00 27 1010.8
20200407172050 60 338 5.0 14.0 0.00 0.00 0.00 26 1010.8
20200407171636 61 284 5.0 13.0 0.00 0.00 0.00 26 1011.0
20200407171029 60 30 3.0 10.0 0.00 0.00 0.00 29 1010.9
20200407170528 60 276 5.0 10.0 0.00 0.00 0.00 29 1011.2
20200407170040 60 262 5.0 11.0 0.00 0.00 0.00 27 1011.3
20200407165528 60 129 4.0 11.0 0.00 0.00 0.00 28 1011.2
20200407165040 60 228 5.0 11.0 0.00 0.00 0.00 30 1011.4
20200407164554 60 299 5.0 11.0 0.00 0.00 0.00 27 1011.4
20200407164046 60 253 5.0 11.0 0.00 0.00 0.00 27 1011.5
20200407163531 60 20 4.0 13.0 0.00 0.00 0.00 29 1011.6
20200407163044 59 289 4.0 13.0 0.00 0.00 0.00 30 1011.6
20200407162530 59 314 3.0 11.0 0.00 0.00 0.00 30 1012.0
20200407162033 60 93 2.0 8.0 0.00 0.00 0.00 30 1012.0
20200407161529 59 247 2.0 8.0 0.00 0.00 0.00 33 1012.0
20200407161030 59 191 2.0 8.0 0.00 0.00 0.00 31 1012.0
20200407160527 58 26 3.0 9.0 0.00 0.00 0.00 32 1012.1
20200407160116 58 311 3.0 11.0 0.00 0.00 0.00 34 1012.3
20200407155526 58 312 6.0 11.0 0.00 0.00 0.00 36 1012.4
20200407155027 58 290 2.0 8.0 0.00 0.00 0.00 32 1012.3
20200407154550 58 143 3.0 9.0 0.00 0.00 0.00 35 1012.3
20200407154028 57 229 2.0 9.0 0.00 0.00 0.00 36 1012.5
20200407153535 57 243 4.0 9.0 0.00 0.00 0.00 33 1012.6
20200407153048 58 359 4.0 9.0 0.00 0.00 0.00 34 1012.7
20200407152527 57 266 4.0 9.0 0.00 0.00 0.00 34 1012.8
20200407152035 57 293 3.0 9.0 0.00 0.00 0.00 35 1012.9
20200407151608 57 162 3.0 7.0 0.00 0.00 0.00 34 1012.8
20200407151030 57 328 3.0 9.0 0.00 0.00 0.00 35 1012.9
20200407150530 56 269 2.0 9.0 0.00 0.00 0.00 38 1013.1
20200407150050 56 246 4.0 10.0 0.00 0.00 0.00 37 1013.2
20200407145534 56 154 4.0 14.0 0.00 0.00 0.00 38 1013.2
20200407145056 56 62 6.0 14.0 0.00 0.00 0.00 36 1013.4
20200407144556 56 319 4.0 8.0 0.00 0.00 0.00 39 1013.4
20200407144034 55 251 3.0 13.0 0.00 0.00 0.00 38 1013.3
20200407143532 55 218 4.0 14.0 0.00 0.00 0.00 38 1013.4
20200407143046 54 275 7.0 14.0 0.00 0.00 0.00 39 1013.4
20200407142551 54 350 6.0 16.0 0.00 0.00 0.00 39 1013.6
20200407142029 54 332 6.0 16.0 0.00 0.00 0.00 41 1013.6
20200407141559 54 355 5.0 14.0 0.00 0.00 0.00 42 1013.7
20200407141033 54 347 5.0 13.0 0.00 0.00 0.00 40 1013.7
20200407140530 53 277 5.0 13.0 0.00 0.00 0.00 43 1013.7
20200407140038 53 295 3.0 6.0 0.00 0.00 0.00 44 1013.9
20200407135530 53 77 1.0 5.0 0.00 0.00 0.00 47 1013.9
20200407135037 53 151 1.0 8.0 0.00 0.00 0.00 47 1013.8
20200407134609 53 124 2.0 8.0 0.00 0.00 0.00 47 1013.9
20200407134029 53 204 2.0 7.0 0.00 0.00 0.00 51 1013.9
20200407133529 52 297 4.0 10.0 0.00 0.00 0.00 48 1013.9
20200407133119 52 356 4.0 10.0 0.00 0.00 0.00 48 1013.9
20200407132528 52 260 3.0 6.0 0.00 0.00 0.00 47 1014.1
20200407132033 52 223 1.0 4.0 0.00 0.00 0.00 51 1014.0
20200407131556 51 221 1.0 5.0 0.00 0.00 0.00 49 1014.1
20200407131038 51 159 2.0 5.0 0.00 0.00 0.00 52 1014.0
20200407130528 50 303 2.0 5.0 0.00 0.00 0.00 49 1014.1
20200407130051 50 285 2.0 5.0 0.00 0.00 0.00 50 1014.1
20200407125531 50 223 3.0 6.0 0.00 0.00 0.00 52 1014.2
20200407125045 49 136 2.0 6.0 0.00 0.00 0.00 53 1014.1
20200407124617 49 276 2.0 5.0 0.00 0.00 0.00 55 1014.1
20200407124034 48 191 2.0 5.0 0.00 0.00 0.00 55 1014.1
20200407123528 48 206 2.0 5.0 0.00 0.00 0.00 57 1014.1
20200407123109 48 193 2.0 5.0 0.00 0.00 0.00 57 1014.2
20200407122529 47 125 2.0 5.0 0.00 0.00 0.00 58 1014.2
20200407122038 47 229 1.0 3.0 0.00 0.00 0.00 59 1014.3
20200407121559 46 297 1.0 3.0 0.00 0.00 0.00 60 1014.3
20200407121028 45 185 0.0 4.0 0.00 0.00 0.00 62 1014.4
20200407120539 44 207 1.0 4.0 0.00 0.00 0.00 62 1014.3
20200407120053 43 315 0.0 2.0 0.00 0.00 0.00 64 1014.3
20200407115536 42 0 1.0 2.0 0.00 0.00 0.00 66 1014.4
20200407115047 41 186 0.0 1.0 0.00 0.00 0.00 68 1014.5
20200407114600 39 226 0.0 1.0 0.00 0.00 0.00 70 1014.3
20200407114030 39 0 0.0 1.0 0.00 0.00 0.00 70 1014.4
20200407113527 38 0 0.0 1.0 0.00 0.00 0.00 71 1014.5
20200407113030 37 0 0.0 1.0 0.00 0.00 0.00 71 1014.3
20200407112527 37 0 0.0 1.0 0.00 0.00 0.00 71 1014.3
20200407112027 36 236 0.0 1.0 0.00 0.00 0.00 72 1014.2
20200407111556 36 0 0.0 1.0 0.00 0.00 0.00 72 1014.1
20200407111038 35 0 0.0 1.0 0.00 0.00 0.00 72 1014.1
20200407110530 35 236 0.0 1.0 0.00 0.00 0.00 73 1014.1
20200407110120 35 236 0.0 1.0 0.00 0.00 0.00 73 1014.1
20200407105529 35 0 0.0 1.0 0.00 0.00 0.00 72 1014.2
20200407105034 35 0 0.0 1.0 0.00 0.00 0.00 72 1014.1
20200407104608 34 224 0.0 1.0 0.00 0.00 0.00 73 1014.2
20200407104035 34 0 0.0 1.0 0.00 0.00 0.00 72 1014.2
20200407103532 35 0 0.0 1.0 0.00 0.00 0.00 72 1014.1
20200407103110 35 221 0.0 1.0 0.00 0.00 0.00 71 1014.1
20200407102528 35 0 0.0 1.0 0.00 0.00 0.00 72 1014.1
20200407102029 35 221 0.0 1.0 0.00 0.00 0.00 72 1014.0
20200407101553 35 0 0.0 1.0 0.00 0.00 0.00 71 1014.0
20200407101029 35 220 0.0 1.0 0.00 0.00 0.00 70 1013.9
20200407100529 35 0 0.0 1.0 0.00 0.00 0.00 71 1013.9
20200407100037 35 0 0.0 1.0 0.00 0.00 0.00 70 1013.7
20200407095539 36 0 0.0 1.0 0.00 0.00 0.00 69 1013.7
20200407095104 36 221 0.0 1.0 0.00 0.00 0.00 67 1013.7
20200407094537 36 0 0.0 1.0 0.00 0.00 0.00 66 1013.7
20200407094037 36 0 0.0 2.0 0.00 0.00 0.00 66 1013.7
20200407093533 36 239 0.0 2.0 0.00 0.00 0.00 64 1013.6
20200407093054 36 254 0.0 1.0 0.00 0.00 0.00 64 1013.6
20200407092529 37 0 0.0 1.0 0.00 0.00 0.00 63 1013.5
20200407092028 37 250 0.0 2.0 0.00 0.00 0.00 60 1013.5
20200407091605 37 205 0.0 2.0 0.00 0.00 0.00 58 1013.6
20200407091032 37 214 1.0 1.0 0.00 0.00 0.00 57 1013.6
20200407090529 37 226 0.0 2.0 0.00 0.00 0.00 58 1013.5
20200407090045 37 232 1.0 2.0 0.00 0.00 0.00 55 1013.6
20200407085527 37 238 0.0 2.0 0.00 0.00 0.00 56 1013.5
20200407085029 37 203 1.0 2.0 0.00 0.00 0.00 55 1013.4
20200407084534 36 212 1.0 2.0 0.00 0.00 0.00 55 1013.5
20200407084039 36 212 0.0 1.0 0.00 0.00 0.00 58 1013.5
20200407083537 36 224 0.0 1.0 0.00 0.00 0.00 60 1013.6
20200407083038 36 237 0.0 1.0 0.00 0.00 0.00 61 1013.7
20200407082536 36 0 0.0 1.0 0.00 0.00 0.00 61 1013.6
20200407082036 36 0 0.0 1.0 0.00 0.00 0.00 59 1013.7
20200407081541 36 0 0.0 1.0 0.00 0.00 0.00 60 1013.7
20200407081027 36 0 0.0 1.0 0.00 0.00 0.00 59 1013.7
20200407080528 37 0 0.0 1.0 0.00 0.00 0.00 58 1013.8
20200407080037 37 0 0.0 1.0 0.00 0.00 0.00 58 1013.7
20200407075532 37 0 0.0 1.0 0.00 0.00 0.00 57 1013.7
20200407075030 37 0 0.0 1.0 0.00 0.00 0.00 55 1013.7
20200407074550 38 235 0.0 1.0 0.00 0.00 0.00 53 1013.8
20200407074027 38 0 0.0 1.0 0.00 0.00 0.00 55 1013.7
20200407073530 38 211 1.0 1.0 0.00 0.00 0.00 52 1013.6
20200407073116 38 208 0.0 1.0 0.00 0.00 0.00 52 1013.7
20200407072532 38 0 0.0 1.0 0.00 0.00 0.00 54 1013.8
20200407072032 38 0 0.0 1.0 0.00 0.00 0.00 54 1013.8
20200407071619 38 208 0.0 1.0 0.00 0.00 0.00 55 1013.8
20200407071045 38 0 0.0 0.0 0.00 0.00 0.00 52 1013.9
20200407070533 39 0 0.0 0.0 0.00 0.00 0.00 52 1013.9
20200407070228 39 0 0.0 1.0 0.00 0.00 0.00 49 1013.9
20200407065532 39 0 0.0 1.0 0.00 0.00 0.00 52 1013.9
20200407065028 40 0 0.0 2.0 0.00 0.00 0.00 51 1013.9
20200407064717 40 0 0.0 2.0 0.00 0.00 0.00 51 1013.7
20200407064027 40 0 0.0 1.0 0.00 0.00 0.00 54 1013.9
20200407063547 41 0 0.0 1.0 0.00 0.00 0.00 51 1013.9
20200407063112 41 0 0.0 1.0 0.00 0.00 0.00 48 1013.9
20200407062529 42 0 0.0 1.0 0.00 0.00 0.00 49 1013.9
20200407062045 42 262 0.0 1.0 0.00 0.00 0.00 47 1014.0
20200407061652 42 262 0.0 1.0 0.00 0.00 0.00 44 1014.0
20200407061038 42 262 0.0 1.0 0.00 0.00 0.00 46 1014.0
20200407060527 42 262 0.0 1.0 0.00 0.00 0.00 47 1014.1
20200407060041 42 262 0.0 2.0 0.00 0.00 0.00 45 1014.1
20200407055527 41 260 0.0 2.0 0.00 0.00 0.00 43 1014.1
20200407055026 41 0 0.0 1.0 0.00 0.00 0.00 45 1014.1
20200407054618 41 244 0.0 1.0 0.00 0.00 0.00 44 1014.1
20200407054028 42 255 0.0 1.0 0.00 0.00 0.00 44 1014.2
20200407053556 42 0 0.0 1.0 0.00 0.00 0.00 40 1014.2
20200407053048 41 0 0.0 2.0 0.00 0.00 0.00 42 1014.3
20200407052528 42 267 0.0 2.0 0.00 0.00 0.00 45 1014.4
20200407052028 42 251 0.0 2.0 0.00 0.00 0.00 42 1014.5
20200407051552 42 0 0.0 2.0 0.00 0.00 0.00 43 1014.4
20200407051030 41 257 0.0 2.0 0.00 0.00 0.00 45 1014.4
20200407050529 41 258 0.0 1.0 0.00 0.00 0.00 45 1014.5
20200407050035 41 0 0.0 1.0 0.00 0.00 0.00 45 1014.4
20200407045532 42 236 0.0 1.0 0.00 0.00 0.00 44 1014.3
20200407045030 42 0 0.0 2.0 0.00 0.00 0.00 42 1014.3
20200407044544 43 0 0.0 2.0 0.00 0.00 0.00 40 1014.3
20200407044027 42 267 0.0 1.0 0.00 0.00 0.00 36 1014.4
20200407043529 42 0 0.0 1.0 0.00 0.00 0.00 41 1014.3
20200407043110 42 250 0.0 1.0 0.00 0.00 0.00 43 1014.3
20200407042527 41 249 0.0 1.0 0.00 0.00 0.00 43 1014.4
20200407042032 42 0 0.0 1.0 0.00 0.00 0.00 43 1014.5
20200407041535 42 0 0.0 1.0 0.00 0.00 0.00 43 1014.5
20200407041032 42 245 0.0 1.0 0.00 0.00 0.00 42 1014.4
20200407040530 43 0 0.0 1.0 0.00 0.00 0.00 40 1014.4
20200407040057 43 0 0.0 1.0 0.00 0.00 0.00 39 1014.4
20200407035536 43 219 0.0 1.0 0.00 0.00 0.00 38 1014.5
20200407035038 43 0 0.0 1.0 0.00 0.00 0.00 40 1014.4
20200407034537 43 229 0.0 2.0 0.00 0.00 0.00 39 1014.3
20200407034036 44 210 0.0 2.0 0.00 0.00 0.00 41 1014.3
20200407033540 43 217 0.0 2.0 0.00 0.00 0.00 41 1014.3
20200407033053 44 0 0.0 1.0 0.00 0.00 0.00 41 1014.2
20200407032529 45 0 0.0 3.0 0.00 0.00 0.00 39 1014.2
20200407032026 44 280 1.0 3.0 0.00 0.00 0.00 37 1014.2
20200407031629 44 269 0.0 1.0 0.00 0.00 0.00 41 1014.3
20200407031051 45 255 0.0 2.0 0.00 0.00 0.00 35 1014.3
20200407030527 45 254 0.0 2.0 0.00 0.00 0.00 40 1014.2
20200407030040 46 0 0.0 0.0 0.00 0.00 0.00 32 1014.2
20200407025527 47 260 0.0 3.0 0.00 0.00 0.00 32 1014.2
20200407025038 47 0 0.0 3.0 0.00 0.00 0.00 31 1014.3
20200407024613 48 219 0.0 3.0 0.00 0.00 0.00 31 1014.3
20200407024035 48 0 0.0 3.0 0.00 0.00 0.00 33 1014.3
20200407023536 48 336 0.0 2.0 0.00 0.00 0.00 30 1014.1
20200407023143 49 235 0.0 2.0 0.00 0.00 0.00 30 1014.3
20200407022530 49 276 0.0 1.0 0.00 0.00 0.00 30 1014.3
20200407022036 49 347 0.0 3.0 0.00 0.00 0.00 29 1014.2
20200407021555 49 269 0.0 3.0 0.00 0.00 0.00 28 1014.2
20200407021033 50 232 0.0 3.0 0.00 0.00 0.00 28 1014.3
20200407020531 50 229 0.0 3.0 0.00 0.00 0.00 30 1014.2
20200407020133 50 285 1.0 4.0 0.00 0.00 0.00 29 1014.3
20200407015528 50 284 0.0 4.0 0.00 0.00 0.00 28 1014.4
20200407015037 50 250 0.0 3.0 0.00 0.00 0.00 31 1014.3
20200407014629 50 0 0.0 6.0 0.00 0.00 0.00 30 1014.3
20200407014025 50 276 1.0 6.0 0.00 0.00 0.00 30 1014.3
20200407013528 51 255 0.0 2.0 0.00 0.00 0.00 29 1014.3
20200407013039 51 0 0.0 5.0 0.00 0.00 0.00 29 1014.1
20200407012532 51 264 2.0 5.0 0.00 0.00 0.00 28 1014.3
20200407012039 52 261 0.0 6.0 0.00 0.00 0.00 30 1014.4
20200407011640 52 304 2.0 6.0 0.00 0.00 0.00 28 1014.5
20200407011046 52 247 2.0 4.0 0.00 0.00 0.00 29 1014.4
20200407010529 52 300 1.0 7.0 0.00 0.00 0.00 28 1014.4
20200407010201 52 259 3.0 7.0 0.00 0.00 0.00 29 1014.3
20200407005530 52 293 1.0 4.0 0.00 0.00 0.00 28 1014.3
20200407005035 52 0 1.0 4.0 0.00 0.00 0.00 28 1014.2
20200407004539 53 295 1.0 5.0 0.00 0.00 0.00 28 1014.1
20200407004029 53 0 1.0 5.0 0.00 0.00 0.00 27 1014.2
20200407003530 53 243 1.0 5.0 0.00 0.00 0.00 28 1014.1
20200407003110 53 296 1.0 5.0 0.00 0.00 0.00 27 1014.0
20200407002615 53 281 2.0 6.0 0.00 0.00 0.00 26 1013.9
20200407002035 54 275 2.0 7.0 0.00 0.00 0.00 26 1013.9
20200407001533 54 266 2.0 7.0 0.00 0.00 0.00 25 1013.9
20200407001058 54 289 2.0 7.0 0.00 0.00 0.00 25 1013.8
20200407000540 54 332 2.0 5.0 0.00 0.00 0.00 26 1013.7
20200407000048 54 186 1.0 4.0 0.00 0.00 0.00 26 1013.6
20200406235541 54 279 0.0 4.0 0.00 0.00 0.00 25 1013.5
20200406235030 54 321 1.0 3.0 0.00 0.00 0.00 24 1013.5
20200406234718 54 300 0.0 4.0 0.00 0.00 0.00 26 1013.4
20200406234032 55 338 2.0 5.0 0.00 0.00 0.00 24 1013.5
20200406233531 55 127 1.0 5.0 0.00 0.00 0.00 25 1013.3
20200406233133 55 93 1.0 7.0 0.00 0.00 0.00 24 1013.5
20200406232530 55 302 2.0 7.0 0.00 0.00 0.00 23 1013.5
20200406232039 56 210 3.0 6.0 0.00 0.00 0.00 23 1013.4